| time (UTC) | temp C | wind direction | speed KPH | gust KPH | rain 1hr cm | rain 24hr cm | rain mn cm | humidity % | barometer mb |
| 20260502232022 | 5 | 0.0 | 0.0 | 0.00 | 0.00 | 0.00 | 80 | 1019.1 | |
| 20260502231157 | 5 | 0.0 | 0.0 | 0.00 | 0.00 | 0.00 | 80 | 1019.2 | |
| 20260502230217 | 5 | 0.0 | 0.0 | 0.00 | 0.00 | 0.00 | 80 | 1019.0 | |
| 20260502225227 | 5 | 0.0 | 0.0 | 0.00 | 0.00 | 0.00 | 80 | 1019.2 | |
| 20260502224332 | 5 | 0.0 | 0.0 | 0.00 | 0.00 | 0.00 | 79 | 1019.3 | |
| 20260502223407 | 6 | 0.0 | 0.0 | 0.00 | 0.00 | 0.00 | 78 | 1019.2 | |
| 20260502222457 | 6 | 0.0 | 0.0 | 0.00 | 0.00 | 0.00 | 78 | 1019.2 | |
| 20260502221626 | 6 | 0.0 | 0.0 | 0.00 | 0.00 | 0.00 | 78 | 1019.2 | |
| 20260502220627 | 6 | 0.0 | 0.0 | 0.00 | 0.00 | 0.00 | 77 | 1019.4 | |
| 20260502215642 | 6 | 0.0 | 0.0 | 0.00 | 0.00 | 0.00 | 76 | 1019.3 | |
| 20260502214727 | 6 | 0.0 | 0.0 | 0.00 | 0.00 | 0.00 | 76 | 1019.2 | |
| 20260502213857 | 6 | 0.0 | 0.0 | 0.00 | 0.00 | 0.00 | 76 | 1019.3 | |
| 20260502212937 | 6 | 0.0 | 0.0 | 0.00 | 0.00 | 0.00 | 75 | 1019.4 | |
| 20260502212122 | 7 | 0.0 | 0.0 | 0.00 | 0.00 | 0.00 | 74 | 1019.4 | |
| 20260502211207 | 7 | 0.0 | 0.0 | 0.00 | 0.00 | 0.00 | 74 | 1019.4 | |
| 20260502210207 | 7 | 0.0 | 0.0 | 0.00 | 0.00 | 0.00 | 73 | 1019.5 | |
| 20260502205207 | 7 | 0.0 | 0.0 | 0.00 | 0.00 | 0.00 | 73 | 1019.6 | |
| 20260502204247 | 7 | 0.0 | 0.0 | 0.00 | 0.00 | 0.00 | 72 | 1019.7 | |
| 20260502203317 | 8 | 0.0 | 0.0 | 0.00 | 0.00 | 0.00 | 72 | 1019.7 | |
| 20260502202502 | 8 | 0.0 | 0.0 | 0.00 | 0.00 | 0.00 | 70 | 1019.9 | |
| 20260502201659 | 8 | 0.0 | 0.0 | 0.00 | 0.00 | 0.00 | 69 | 1019.8 | |
| 20260502200820 | 8 | 0.0 | 0.0 | 0.00 | 0.00 | 0.00 | 69 | 1019.9 | |
| 20260502195942 | 8 | 0.0 | 0.0 | 0.00 | 0.00 | 0.00 | 68 | 1020.0 | |
| 20260502195052 | 9 | 0.0 | 0.0 | 0.00 | 0.00 | 0.00 | 67 | 1020.0 | |
| 20260502194211 | 9 | 0.0 | 0.0 | 0.00 | 0.00 | 0.00 | 67 | 1020.0 | |
| 20260502193217 | 10 | 0.0 | 0.0 | 0.00 | 0.00 | 0.00 | 66 | 1020.1 | |
| 20260502192227 | 10 | 0.0 | 0.0 | 0.00 | 0.00 | 0.00 | 64 | 1020.0 | |
| 20260502191407 | 11 | 0.0 | 0.0 | 0.00 | 0.00 | 0.00 | 62 | 1020.0 | |
| 20260502190417 | 11 | 0.0 | 0.0 | 0.00 | 0.00 | 0.00 | 60 | 1020.0 | |
| 20260502185437 | 12 | 0.0 | 0.0 | 0.00 | 0.00 | 0.00 | 59 | 1020.0 | |
| 20260502184447 | 12 | 0.0 | 0.0 | 0.00 | 0.00 | 0.00 | 56 | 1020.1 | |
| 20260502183531 | 13 | 0.0 | 0.0 | 0.00 | 0.00 | 0.00 | 55 | 1019.9 | |
| 20260502182701 | 14 | 0.0 | 0.0 | 0.00 | 0.00 | 0.00 | 54 | 1019.9 | |
| 20260502181747 | 15 | 0.0 | 0.0 | 0.00 | 0.00 | 0.00 | 53 | 1019.7 | |
| 20260502180947 | 16 | 0.0 | 0.0 | 0.00 | 0.00 | 0.00 | 50 | 1019.7 | |
| 20260502164307 | 21 | 0.0 | 0.0 | 0.00 | 0.00 | 0.00 | 34 | 1020.2 | |
| 20260502163322 | 21 | 0.0 | 0.0 | 0.00 | 0.00 | 0.00 | 34 | 1020.3 | |
| 20260502162502 | 21 | 0.0 | 0.0 | 0.00 | 0.00 | 0.00 | 32 | 1020.4 | |
| 20260502161519 | 21 | 0.0 | 0.0 | 0.00 | 0.00 | 0.00 | 31 | 1020.6 | |
| 20260502160612 | 22 | 0.0 | 0.0 | 0.00 | 0.00 | 0.00 | 31 | 1020.8 | |
| 20260502152007 | 22 | 0.0 | 0.0 | 0.00 | 0.00 | 0.00 | 29 | 1021.1 | |
| 20260502151057 | 22 | 0.0 | 0.0 | 0.00 | 0.00 | 0.00 | 30 | 1021.1 | |
| 20260502150117 | 22 | 0.0 | 0.0 | 0.00 | 0.00 | 0.00 | 31 | 1021.2 | |
| 20260502130437 | 23 | 0.0 | 0.0 | 0.00 | 0.00 | 0.00 | 29 | 1022.6 | |
| 20260502123522 | 22 | 0.0 | 0.0 | 0.00 | 0.00 | 0.00 | 32 | 1022.9 | |
| 20260502122707 | 22 | 0.0 | 0.0 | 0.00 | 0.00 | 0.00 | 32 | 1022.9 | |
| 20260502121817 | 22 | 0.0 | 0.0 | 0.00 | 0.00 | 0.00 | 36 | 1023.1 | |
| 20260502120947 | 22 | 0.0 | 0.0 | 0.00 | 0.00 | 0.00 | 32 | 1023.3 | |
| 20260502115137 | 22 | 0.0 | 0.0 | 0.00 | 0.00 | 0.00 | 34 | 1023.5 | |
| 20260502114209 | 22 | 0.0 | 0.0 | 0.00 | 0.00 | 0.00 | 36 | 1023.5 | |
| 20260502113237 | 22 | 0.0 | 0.0 | 0.00 | 0.00 | 0.00 | 34 | 1023.6 | |
| 20260502112305 | 21 | 0.0 | 0.0 | 0.00 | 0.00 | 0.00 | 33 | 1023.8 | |
| 20260502111427 | 22 | 0.0 | 0.0 | 0.00 | 0.00 | 0.00 | 34 | 1024.0 | |
| 20260502110442 | 22 | 0.0 | 0.0 | 0.00 | 0.00 | 0.00 | 36 | 1023.9 | |
| 20260502105510 | 22 | 0.0 | 0.0 | 0.00 | 0.00 | 0.00 | 36 | 1024.1 | |
| 20260502104557 | 21 | 0.0 | 0.0 | 0.00 | 0.00 | 0.00 | 36 | 1024.3 | |
| 20260502103747 | 21 | 0.0 | 0.0 | 0.00 | 0.00 | 0.00 | 38 | 1024.3 | |
| 20260502102947 | 21 | 0.0 | 0.0 | 0.00 | 0.00 | 0.00 | 37 | 1024.4 | |
| 20260502102147 | 21 | 0.0 | 0.0 | 0.00 | 0.00 | 0.00 | 37 | 1024.5 | |
| 20260502101337 | 21 | 0.0 | 0.0 | 0.00 | 0.00 | 0.00 | 36 | 1024.6 | |
| 20260502100337 | 21 | 0.0 | 0.0 | 0.00 | 0.00 | 0.00 | 38 | 1024.7 | |
| 20260502091022 | 20 | 0.0 | 0.0 | 0.00 | 0.00 | 0.00 | 40 | 1025.0 | |
| 20260502090222 | 20 | 0.0 | 0.0 | 0.00 | 0.00 | 0.00 | 40 | 1025.1 | |
| 20260502071507 | 20 | 0.0 | 0.0 | 0.00 | 0.00 | 0.00 | 48 | 1025.3 | |
| 20260502070602 | 19 | 0.0 | 0.0 | 0.00 | 0.00 | 0.00 | 52 | 1025.4 | |
| 20260502065731 | 18 | 0.0 | 0.0 | 0.00 | 0.00 | 0.00 | 56 | 1025.5 | |
| 20260502064807 | 17 | 0.0 | 0.0 | 0.00 | 0.00 | 0.00 | 59 | 1025.4 | |
| 20260502063817 | 17 | 0.0 | 0.0 | 0.00 | 0.00 | 0.00 | 62 | 1025.3 | |
| 20260502062857 | 16 | 0.0 | 0.0 | 0.00 | 0.00 | 0.00 | 67 | 1025.4 | |
| 20260502062042 | 15 | 0.0 | 0.0 | 0.00 | 0.00 | 0.00 | 69 | 1025.3 | |
| 20260502061151 | 14 | 0.0 | 0.0 | 0.00 | 0.00 | 0.00 | 73 | 1025.3 | |
| 20260502060242 | 13 | 0.0 | 0.0 | 0.00 | 0.00 | 0.00 | 76 | 1025.4 | |
| 20260502055337 | 12 | 0.0 | 0.0 | 0.00 | 0.00 | 0.00 | 83 | 1025.3 | |
| 20260502054447 | 11 | 0.0 | 0.0 | 0.00 | 0.00 | 0.00 | 86 | 1025.3 | |
| 20260502053527 | 10 | 0.0 | 0.0 | 0.00 | 0.00 | 0.00 | 88 | 1025.3 | |
| 20260502052637 | 9 | 0.0 | 0.0 | 0.00 | 0.00 | 0.00 | 88 | 1025.4 | |
| 20260502051702 | 8 | 0.0 | 0.0 | 0.00 | 0.00 | 0.00 | 89 | 1025.3 | |
| 20260502050757 | 7 | 0.0 | 0.0 | 0.00 | 0.00 | 0.00 | 89 | 1025.3 | |
| 20260502045857 | 6 | 0.0 | 0.0 | 0.00 | 0.00 | 0.00 | 89 | 1025.2 | |
| 20260502045017 | 5 | 0.0 | 0.0 | 0.00 | 0.00 | 0.00 | 89 | 1025.2 | |
| 20260502044211 | 5 | 0.0 | 0.0 | 0.00 | 0.00 | 0.00 | 88 | 1025.3 | |
| 20260502043322 | 4 | 0.0 | 0.0 | 0.00 | 0.00 | 0.00 | 88 | 1025.2 | |
| 20260502042427 | 3 | 0.0 | 0.0 | 0.00 | 0.00 | 0.00 | 88 | 1025.2 | |
| 20260502041531 | 3 | 0.0 | 0.0 | 0.00 | 0.00 | 0.00 | 88 | 1025.1 | |
| 20260502040727 | 3 | 0.0 | 0.0 | 0.00 | 0.00 | 0.00 | 88 | 1025.1 | |
| 20260502035732 | 3 | 0.0 | 0.0 | 0.00 | 0.00 | 0.00 | 88 | 1025.1 | |
| 20260502034857 | 3 | 0.0 | 0.0 | 0.00 | 0.00 | 0.00 | 88 | 1025.0 | |
| 20260502034012 | 3 | 0.0 | 0.0 | 0.00 | 0.00 | 0.00 | 87 | 1025.2 | |
| 20260502033031 | 3 | 0.0 | 0.0 | 0.00 | 0.00 | 0.00 | 88 | 1025.2 | |
| 20260502032102 | 3 | 0.0 | 0.0 | 0.00 | 0.00 | 0.00 | 87 | 1025.1 | |
| 20260502031157 | 3 | 0.0 | 0.0 | 0.00 | 0.00 | 0.00 | 87 | 1025.2 | |
| 20260502030351 | 3 | 0.0 | 0.0 | 0.00 | 0.00 | 0.00 | 86 | 1025.2 | |
| 20260502025357 | 3 | 0.0 | 0.0 | 0.00 | 0.00 | 0.00 | 86 | 1025.3 | |
| 20260502024555 | 3 | 0.0 | 0.0 | 0.00 | 0.00 | 0.00 | 87 | 1025.3 | |
| 20260502023751 | 3 | 0.0 | 0.0 | 0.00 | 0.00 | 0.00 | 86 | 1025.4 | |
| 20260502022851 | 3 | 0.0 | 0.0 | 0.00 | 0.00 | 0.00 | 86 | 1025.2 | |
| 20260502022007 | 3 | 0.0 | 0.0 | 0.00 | 0.00 | 0.00 | 87 | 1025.3 | |
| 20260502021207 | 3 | 0.0 | 0.0 | 0.00 | 0.00 | 0.00 | 86 | 1025.1 | |
| 20260502020322 | 4 | 0.0 | 0.0 | 0.00 | 0.00 | 0.00 | 87 | 1025.3 | |
| 20260502015331 | 4 | 0.0 | 0.0 | 0.00 | 0.00 | 0.00 | 86 | 1025.3 | |
| 20260502014357 | 4 | 0.0 | 0.0 | 0.00 | 0.00 | 0.00 | 87 | 1025.4 | |
| 20260502013557 | 4 | 0.0 | 0.0 | 0.00 | 0.00 | 0.00 | 86 | 1025.3 | |
| 20260502012647 | 4 | 0.0 | 0.0 | 0.00 | 0.00 | 0.00 | 84 | 1025.3 | |
| 20260502011827 | 5 | 0.0 | 0.0 | 0.00 | 0.00 | 0.00 | 84 | 1025.4 | |
| 20260502010912 | 5 | 0.0 | 0.0 | 0.00 | 0.00 | 0.00 | 83 | 1025.5 | |
| 20260502010047 | 5 | 0.0 | 0.0 | 0.00 | 0.00 | 0.00 | 84 | 1025.5 | |
| 20260502005207 | 6 | 0.0 | 0.0 | 0.00 | 0.00 | 0.00 | 84 | 1025.5 | |
| 20260502004317 | 6 | 0.0 | 0.0 | 0.00 | 0.00 | 0.00 | 84 | 1025.7 | |
| 20260502003447 | 6 | 0.0 | 0.0 | 0.00 | 0.00 | 0.00 | 84 | 1025.5 | |
| 20260502002617 | 6 | 0.0 | 0.0 | 0.00 | 0.00 | 0.00 | 84 | 1025.6 | |
| 20260502001751 | 6 | 0.0 | 0.0 | 0.00 | 0.00 | 0.00 | 84 | 1025.6 | |
| 20260502000817 | 6 | 0.0 | 0.0 | 0.00 | 0.00 | 0.00 | 85 | 1025.7 | |
| 20260501235951 | 6 | 0.0 | 0.0 | 0.00 | 0.00 | 0.00 | 84 | 1025.7 | |
| 20260501235052 | 6 | 0.0 | 0.0 | 0.00 | 0.00 | 0.00 | 84 | 1025.9 | |
| 20260501234207 | 6 | 0.0 | 0.0 | 0.00 | 0.00 | 0.00 | 83 | 1025.7 | |
| 20260501233217 | 6 | 0.0 | 0.0 | 0.00 | 0.00 | 0.00 | 83 | 1025.7 |